Regional Weather Roundup
Issued by NWS

Home | Current Version | Previous Version | Text Only | Print | Product List | Glossary Off
Versions: 1 2 3 4 5 6 7 8 9 10 11 12 13 14 15 16 17 18 19 20 21 22 23 24 25 26 27 28 29 30 31 32 33 34 35 36 37 38 39 40 41 42 43 44 45 46 47 48 49 50

000
ASUS43 KTOP 260808
RWRKS

WEATHER ROUNDUP FOR KANSAS
NATIONAL WEATHER SERVICE GOODLAND KS
200 AM CST WED NOV 26 2014

NOTE:  "FAIR" INDICATES FEW OR NO CLOUDS BELOW 12,000 FEET WITH NO
SIGNIFICANT WEATHER AND/OR OBSTRUCTIONS TO VISIBILITY.

KSZ001>006-013>018-027>032-041>047-260900-
NORTHWEST KANSAS

CITY           SKY/WX    TMP DP  RH WIND       PRES   REMARKS
GOODLAND       FLURRIES  34  33  96 NW16      30.09R WCI  24
HAYS           CLOUDY    45  27  49 NW10      30.00R
HILL CITY      CLOUDY    44  31  60 NW12      30.01R
RUSSELL        CLOUDY    43  27  53 NW12      29.98R
$$

KSZ061>065-074>080-084>089-260900-
SOUTHWEST KANSAS

CITY           SKY/WX    TMP DP  RH WIND       PRES   REMARKS
DODGE CITY     CLOUDY    42  33  70 N18G31    30.02R
ELKHART          N/A     35  19  52 N9          N/A
GARDEN CITY    CLOUDY    38  34  85 N22G30    30.05R WCI  27
GREAT BEND     CLOUDY    45  27  49 NW10      30.00R
LIBERAL        CLEAR     39  23  52 N20       30.04R WCI  30
PRATT          CLOUDY    39  27  60 NW13      29.99R WCI  32
$$

KSZ066>073-081>083-090>101-260900-
SOUTHEAST KANSAS

CITY           SKY/WX    TMP DP  RH WIND       PRES   REMARKS
CHANUTE        CLOUDY    40  26  57 S7        29.96F
COFFEYVILLE    CLOUDY    38  26  62 S7        29.97F
HUTCHINSON     CLOUDY    43  27  53 SW9       29.95R
MEDICINE LODGE   N/A     34  28  79 N5        29.97R
NEWTON         CLOUDY    39  25  56 W10       29.96R WCI  32
PARSONS        CLOUDY    41  25  53 S8        29.97F
WICHITA INTL   CLOUDY    41  28  60 SW8       29.96R
WICHITA JABRA  CLOUDY    42  27  55 SW9       29.94R
WICHITA MCCONL CLOUDY    41  27  57 SW10      29.94S
WINFIELD       CLOUDY    40  27  59 SE5       29.96R
$$

KSZ007>012-019>026-033>040-048>060-102>105-260900-
NORTHEAST KANSAS

CITY           SKY/WX    TMP DP  RH WIND       PRES   REMARKS
CONCORDIA      CLOUDY    44  30  57 NW13      29.94R
EMPORIA        CLOUDY    39  24  55 S12       29.93R WCI  32
LAWRENCE       CLOUDY    40  23  50 S14       29.93F WCI  32
MANHATTAN      LGT RAIN  46  30  53 W14G22    29.94R
MARYSVILLE     CLOUDY    43  32  65 W9        29.90R
OLATHE IND     CLOUDY    37  23  56 S12       29.93F WCI  29
OLATHE EXE     CLOUDY    38  22  52 S7        29.94S
SALINA         CLOUDY    45  27  49 NW10      29.97R
TOPEKA BILLARD CLOUDY    43  24  47 S17G23    29.90F
TOPEKA FORBES  CLOUDY    42  24  49 S21G31    29.90F
$$


USA.gov is the U.S. government's official web portal to all federal, state and local government web resources and services.